Date,TemperatureHighF,TemperatureAvgF,TemperatureLowF,DewpointHighF,DewpointAvgF,DewpointLowF,HumidityHigh,HumidityAvg,HumidityLow,PressureMaxIn,PressureMinIn,WindSpeedMaxMPH,WindSpeedAvgMPH,GustSpeedMaxMPH,PrecipitationSumIn
2013-5-1,72.7,55.7,38.5,40.1,32.8,19.9,83,49,14,30.35,30.21,12,3,14,0.00
2013-5-2,75.9,59.6,44.2,43.3,39.1,36.0,80,50,25,30.32,30.14,24,5,26,0.02
2013-5-3,78.4,62.5,47.7,48.0,43.3,39.2,79,52,31,30.17,30.00,23,6,30,0.00
2013-5-4,82.6,66.7,49.8,48.4,43.6,34.5,82,48,19,30.01,29.76,21,5,23,0.00
2013-5-5,89.4,71.1,51.8,49.6,44.1,37.6,75,43,18,29.76,29.54,21,4,21,0.00
2013-5-6,95.4,74.5,53.8,48.0,43.7,38.5,69,37,14,29.62,29.51,11,3,21,0.00
2013-5-7,80.6,64.4,52.9,53.8,50.9,47.5,90,64,35,29.78,29.59,18,5,19,0.01
2013-5-8,76.3,60.6,52.7,52.7,50.7,48.7,88,72,42,29.92,29.78,12,4,15,0.00
2013-5-9,80.8,63.1,52.0,53.8,51.4,44.8,94,69,31,29.99,29.88,14,3,19,0.00
2013-5-10,88.3,69.5,51.3,54.5,51.6,46.6,91,58,27,29.98,29.87,9,3,9,0.00
2013-5-11,88.9,71.5,58.5,57.0,49.4,41.4,75,48,25,29.95,29.75,15,4,20,0.00
2013-5-12,77.9,66.4,59.2,58.8,56.6,52.9,95,73,42,29.87,29.78,17,5,18,0.01
2013-5-13,69.8,59.2,50.9,59.9,51.6,40.5,94,77,55,29.96,29.70,28,7,29,0.08
2013-5-14,75.0,60.0,49.1,44.6,40.0,29.7,81,52,20,30.00,29.88,9,4,11,0.08
2013-5-15,74.8,58.1,48.2,52.9,46.1,39.9,91,68,32,29.90,29.79,13,3,13,0.00
2013-5-16,79.3,64.9,54.7,54.3,50.5,45.0,92,64,31,29.79,29.63,11,4,14,0.00
2013-5-17,69.3,59.6,54.0,53.4,50.2,45.0,93,72,45,29.83,29.72,13,4,17,0.00
2013-5-18,71.6,60.2,54.0,48.9,46.3,42.4,82,62,38,30.04,29.83,17,4,17,0.00
2013-5-19,75.0,61.4,54.5,50.2,48.3,45.9,82,64,37,30.18,30.04,10,3,10,0.00
2013-5-20,77.9,60.9,48.2,50.7,47.6,42.6,93,65,30,30.12,29.67,10,3,12,0.00
2013-5-21,66.7,54.1,47.7,50.5,45.9,40.1,96,75,42,29.68,29.55,19,5,21,0.01
2013-5-22,61.5,51.0,45.9,48.6,45.4,42.8,95,82,59,29.71,29.62,11,4,15,0.02
2013-5-23,66.9,54.0,47.1,48.7,45.4,39.4,92,74,40,29.79,29.70,15,3,16,0.01
2013-5-24,72.1,57.9,48.7,49.3,45.5,39.4,91,66,31,29.83,29.74,16,4,21,0.00
2013-5-25,72.0,60.0,52.3,48.9,45.9,38.8,85,62,30,29.82,29.74,11,4,16,0.00
2013-5-26,75.2,60.2,53.1,54.3,50.7,48.0,91,73,43,29.76,29.70,10,3,15,0.00
2013-5-27,64.0,58.7,53.1,56.3,53.3,50.0,91,82,70,29.74,29.48,9,3,11,0.01
2013-5-28,69.4,59.1,52.5,54.5,50.7,46.8,94,75,46,29.66,29.54,9,4,11,0.01
2013-5-29,65.7,57.1,51.3,52.3,49.7,46.4,93,77,54,29.74,29.45,15,4,16,0.02
2013-5-30,69.1,57.8,50.2,48.9,45.9,40.3,83,67,36,30.02,29.74,16,6,16,0.00
2013-5-31,77.5,62.7,53.1,50.2,44.8,37.6,81,56,25,30.12,30.02,8,3,9,0.00